Disclaimer

Please do not use the information listed here in-flight or in-navigation, as they are not provided to us by the airports but are provided by volunteers, so they might be outdated.

Search


Regions


Airport information page

Radio informations:
COLOMBO TWR - 118.7 MHz
COLOMBO GND - 121.9 MHz
Automatic Terminal Information Service (ATIS) - 127.2 MHz
COLOMBO APP - 120.9 MHz

Airport informations:
Latitude: 07° 10' 50.72" N
Longitude: 079° 53' 02.82" E
Elevation: 30 feet - 9 meters
Operating hours: N/A
Operating agency: Civil government, landing fees and diplomatic clearance may be required
Timezone: UTC+6DT
Fuel: Jet A1+, Jet A1 with icing inhibitor.

100/130 MIL Spec, low lead, aviation gasoline (BLUE)

Runway information:
04/22 - 10991 x 148 feet< - >3350 x 45 meters

Recent METARs:
VCBI 170910Z 03014KT 330V060 CAVOK 32/15 Q1008 NOSIG
VCBI 170910Z 03014KT 330V060 CAVOK 32/15 Q1008 NOSIG
VCBI 171010Z 03011KT 360V070 9999 FEW020 31/16 Q1008 NOSIG

Airport on the map: